Weather History for KMLP - October, 2012

Change the Weather History Date:

Wednesday, October 3, 2012

  Actual Average (K3TH) Record (K3TH)
Temperature  
Mean Temperature 30 °F -  
Max Temperature 37 °F 63 °F 75 °F (1996)
Min Temperature 24 °F 41 °F 38 °F (2001)
Degree Days  
Heating Degree Days 36    
Moisture  
Dew Point 26 °F    
Average Humidity 89    
Maximum Humidity 100    
Minimum Humidity 53    
Precipitation  
Precipitation 0.08 in - - ()
Sea Level Pressure  
Sea Level Pressure 30.26 in    
Wind  
Wind Speed 5 mph (NNE)    
Max Wind Speed 13 mph    
Max Gust Speed 23 mph    
Visibility 8 miles    
Events Fog , Snow    
Averages and records for this station are not official NWS values.
T = Trace of Precipitation, MM = Missing Value Source: NWS Daily Summary

Daily Weather History Graph

Daily Weather History Graph

Search for Another Location

Airport or City:

Trip Planner

Search our weather history database for the weather conditions in past years. The results will help you decide how hot, cold, wet, or windy it might be!

Date:

Astronomy

Oct. 03, 2012 Rise Set
Actual Time 6:45 AM PDT 6:16 PM PDT
Civil Twilight 6:14 AM PDT 6:47 PM PDT
Nautical Twilight 5:38 AM PDT 7:23 PM PDT
Astronomical Twilight 5:02 AM PDT 7:59 PM PDT
Moon 7:54 PM PDT (10/3) 10:29 AM PDT (10/3)
Length of Visible Light 12h 32m
Length of Day
11h 31m
Waning Gibbous, 88% of the Moon is Illuminated
Oct 3
Waning Gibbous
Oct 8
Last Quarter
Oct 15
New
Oct 21
First Quarter
Oct 29
Full

Hourly Weather History & Observations

Time (PDT) Temp. Windchill Dew Point Humidity Pressure Visibility Wind Dir Wind Speed Gust Speed Precip Events Conditions
12:53 AM 26.1 °F 18.4 °F 10.9 °F 53% 29.93 in 10.0 mi NNW 6.9 mph 17.3 mph N/A   Clear
1:42 AM 26.6 °F 17.5 °F 19.4 °F 74% 30.10 in 1.8 mi NNW 9.2 mph 17.3 mph 0.00 in Snow Light Snow
1:45 AM 24.8 °F 14.6 °F 21.2 °F 86% 30.10 in 0.8 mi NW 10.4 mph 17.3 mph 0.00 in Snow Light Snow
1:53 AM 24.1 °F 15.2 °F 23.0 °F 96% 29.99 in 0.2 mi NW 8.1 mph 16.1 mph 0.01 in Fog , Snow Heavy Snow
2:01 AM 24.8 °F 16.1 °F 24.8 °F 100% 30.11 in 0.2 mi NNW 8.1 mph - 0.03 in Fog , Snow Heavy Snow
2:27 AM 24.8 °F 16.1 °F 24.8 °F 100% 30.12 in 0.5 mi North 8.1 mph - 0.05 in Fog , Snow Snow
2:34 AM 24.8 °F 14.6 °F 24.8 °F 100% 30.12 in 0.5 mi North 10.4 mph - 0.05 in Fog , Snow Snow
2:53 AM 26.1 °F 15.0 °F 25.0 °F 96% 29.99 in 0.8 mi North 12.7 mph 23.0 mph 0.06 in Snow Light Snow
3:15 AM 26.6 °F - 26.6 °F 100% 30.13 in 0.5 mi Calm Calm - 0.01 in Fog , Snow Snow
3:34 AM 26.6 °F - 26.6 °F 100% 30.16 in 1.0 mi Calm Calm - 0.01 in Snow Light Snow
3:49 AM 26.6 °F - 26.6 °F 100% 30.16 in 1.8 mi Calm Calm - 0.01 in Snow Light Snow
3:53 AM 26.1 °F - 26.1 °F 100% 30.04 in 2.5 mi Calm Calm - 0.01 in Snow Light Snow
4:02 AM 26.6 °F 21.2 °F 26.6 °F 100% 30.17 in 5.0 mi Variable 4.6 mph - 0.00 in Snow Light Snow
4:13 AM 26.6 °F 21.2 °F 26.6 °F 100% 30.18 in 10.0 mi Variable 4.6 mph - 0.00 in   Overcast
4:20 AM 26.6 °F - 26.6 °F 100% 30.18 in 10.0 mi Calm Calm - 0.00 in   Overcast
4:53 AM 25.0 °F 20.7 °F 24.1 °F 96% 30.10 in 10.0 mi Variable 3.5 mph - 0.00 in   Scattered Clouds
6:37 AM 26.6 °F - 24.8 °F 93% 30.25 in 10.0 mi Calm Calm - N/A   Mostly Cloudy
6:53 AM 25.0 °F 20.7 °F 24.1 °F 96% 30.17 in 10.0 mi Variable 3.5 mph - N/A   Mostly Cloudy
7:00 AM 26.6 °F 21.2 °F 24.8 °F 93% 30.27 in 10.0 mi Variable 4.6 mph - N/A   Mostly Cloudy
7:10 AM 24.8 °F 19.1 °F 24.8 °F 100% 30.27 in 10.0 mi Variable 4.6 mph - N/A   Scattered Clouds
7:33 AM 24.8 °F 19.1 °F 24.8 °F 100% 30.27 in 10.0 mi Variable 4.6 mph - N/A   Partly Cloudy
8:53 AM 27.0 °F - 26.1 °F 96% 30.25 in 10.0 mi Calm Calm - N/A   Mostly Cloudy
9:53 AM 30.9 °F 27.5 °F 28.9 °F 92% 30.27 in 10.0 mi Variable 3.5 mph - N/A   Mostly Cloudy
10:17 AM 30.2 °F 25.4 °F 28.4 °F 93% 30.35 in 10.0 mi Variable 4.6 mph - N/A   Scattered Clouds
10:36 AM 30.2 °F 25.4 °F 26.6 °F 86% 30.36 in 10.0 mi Variable 4.6 mph - N/A   Mostly Cloudy
10:53 AM 30.0 °F - 27.0 °F 88% 30.32 in 10.0 mi Calm Calm - N/A   Mostly Cloudy
11:01 AM 30.2 °F - 28.4 °F 93% 30.36 in 10.0 mi Calm Calm - N/A   Mostly Cloudy
11:53 AM 32.0 °F - 28.9 °F 88% 30.34 in 10.0 mi Calm Calm - N/A   Overcast
12:15 PM 32.0 °F - 28.4 °F 87% 30.39 in 10.0 mi Calm Calm - N/A   Overcast
12:31 PM 32.0 °F - 28.4 °F 87% 30.39 in 10.0 mi Calm Calm - N/A   Overcast
12:45 PM 33.8 °F - 30.2 °F 87% 30.39 in 10.0 mi Calm Calm - N/A   Overcast
12:53 PM 33.1 °F - 30.0 °F 89% 30.35 in 10.0 mi Calm Calm - N/A   Overcast
1:32 PM 33.8 °F - 30.2 °F 87% 30.39 in 10.0 mi Calm Calm - N/A   Overcast
1:53 PM 34.0 °F 29.8 °F 28.9 °F 82% 30.48 in 10.0 mi Variable 4.6 mph - N/A   Mostly Cloudy
2:22 PM 33.8 °F 30.8 °F 26.6 °F 75% 30.38 in 10.0 mi ESE 3.5 mph - N/A   Mostly Cloudy
2:30 PM 33.8 °F 30.8 °F 28.4 °F 81% 30.38 in 10.0 mi Variable 3.5 mph - N/A   Scattered Clouds
2:41 PM 33.8 °F - 28.4 °F 81% 30.38 in 10.0 mi Calm Calm - N/A   Mostly Cloudy
2:53 PM 33.1 °F - 30.0 °F 89% 30.33 in 10.0 mi Calm Calm - N/A   Mostly Cloudy
3:27 PM 33.8 °F - 30.2 °F 87% 30.38 in 10.0 mi Calm Calm - N/A   Scattered Clouds
3:53 PM 35.1 °F 30.1 °F 28.9 °F 78% 30.32 in 10.0 mi Variable 5.8 mph - N/A   Clear
4:53 PM 34.0 °F - 28.9 °F 82% 30.32 in 10.0 mi Calm Calm - N/A   Clear
5:53 PM 30.0 °F 26.5 °F 27.0 °F 88% 30.46 in 10.0 mi Variable 3.5 mph - N/A   Clear
7:53 PM 28.9 °F 20.4 °F 24.1 °F 82% 30.46 in 10.0 mi ESE 9.2 mph 17.3 mph N/A   Clear
8:53 PM 28.9 °F 21.9 °F 23.0 °F 78% 30.45 in 10.0 mi Variable 6.9 mph - N/A   Clear
9:53 PM 28.0 °F 20.0 °F 21.9 °F 78% 30.27 in 10.0 mi ESE 8.1 mph - N/A   Clear
10:53 PM 28.0 °F 19.3 °F 21.9 °F 78% 30.40 in 10.0 mi ESE 9.2 mph - N/A   Clear
11:53 PM 27.0 °F 18.0 °F 21.9 °F 81% 30.25 in 10.0 mi ESE 9.2 mph 17.3 mph N/A   Clear